Photometre #354[Standard_N] Mount_Chacaltaya AOT

File : 20220919_354.hum

19/09/2022,11:03:32,TEMP=-3.1,BA=5.60,STAT.A=Abs.,ExtBa=12.43
19/09/2022,11:06:29,TEMP=-3.0,BA=5.60,STAT.A=Abs.,ExtBa=12.37
19/09/2022,11:09:26,TEMP=-3.0,BA=5.60,STAT.A=Abs.,ExtBa=12.34
19/09/2022,11:13:00,TEMP=-3.1,BA=5.36,STAT.A=Abs.,ExtBa=12.33
19/09/2022,11:17:27,TEMP=-3.2,BA=5.36,STAT.A=Abs.,ExtBa=12.33
19/09/2022,11:22:54,TEMP=-3.3,BA=5.40,STAT.A=Abs.,ExtBa=12.35
19/09/2022,11:29:46,TEMP=-3.4,BA=5.40,STAT.B=Abs.,ExtBa=12.36
19/09/2022,11:33:03,TEMP=-3.3,BA=5.40,STAT.A=Abs.,ExtBa=12.33
19/09/2022,11:36:42,TEMP=-3.4,BA=5.40,STAT.A=Abs.,ExtBa=12.32
19/09/2022,11:40:48,TEMP=-3.4,BA=5.52,STAT.A=Abs.,ExtBa=12.32
19/09/2022,11:45:27,TEMP=-3.3,BA=5.52,STAT.A=Abs.,ExtBa=12.31
19/09/2022,11:50:45,TEMP=-3.2,BA=5.60,STAT.C=Abs.,ExtBa=12.32
19/09/2022,12:03:05,TEMP=-1.7,BA=5.36,STAT.A=Abs.,ExtBa=12.22
19/09/2022,12:06:03,TEMP=-1.3,BA=5.36,STAT.A=Abs.,ExtBa=12.29
19/09/2022,12:12:30,TEMP=-1.0,BA=5.60,STAT.A=Abs.,ExtBa=12.31
19/09/2022,12:22:43,TEMP=-0.4,BA=5.64,STAT.A=Abs.,ExtBa=13.01
19/09/2022,12:35:20,TEMP=0.4,BA=5.64,STAT.B=Abs.,ExtBa=13.55
19/09/2022,13:01:11,TEMP=1.9,BA=5.68,STAT.B=Abs.,ExtBa=13.72
19/09/2022,13:12:05,TEMP=2.3,BA=5.68,STAT.D=Abs.,ExtBa=13.59
19/09/2022,13:27:07,TEMP=2.8,BA=5.68,STAT.F,ExtBa=13.74
19/09/2022,13:42:06,TEMP=3.8,BA=5.68,STAT.D=Abs.,ExtBa=13.64
19/09/2022,13:57:06,TEMP=4.3,BA=5.68,STAT.D=Abs.,ExtBa=13.78
19/09/2022,14:12:06,TEMP=5.0,BA=5.68,STAT.D=Abs.,ExtBa=13.84
19/09/2022,14:27:08,TEMP=4.7,BA=5.68,STAT.F,ExtBa=13.92
19/09/2022,14:42:06,TEMP=5.0,BA=5.68,STAT.D=Abs.,ExtBa=13.99
19/09/2022,14:57:06,TEMP=5.5,BA=5.68,STAT.D=Abs.,ExtBa=14.14
19/09/2022,15:12:06,TEMP=6.1,BA=5.64,STAT.D=Abs.,ExtBa=14.29
19/09/2022,15:27:08,TEMP=7.1,BA=5.64,STAT.F,ExtBa=14.38
19/09/2022,15:42:07,TEMP=7.7,BA=5.64,STAT.D=Abs.,ExtBa=14.38
19/09/2022,15:57:07,TEMP=7.4,BA=5.64,STAT.D=Abs.,ExtBa=14.36
19/09/2022,16:12:07,TEMP=7.7,BA=5.64,STAT.D=Abs.,ExtBa=14.36
19/09/2022,16:27:09,TEMP=8.1,BA=5.64,STAT.F,ExtBa=14.34
19/09/2022,16:42:07,TEMP=8.6,BA=5.64,STAT.D=Abs.,ExtBa=14.33
19/09/2022,16:57:07,TEMP=8.4,BA=5.64,STAT.D=Abs.,ExtBa=14.32
19/09/2022,17:12:06,TEMP=8.7,BA=5.64,STAT.D=Abs.,ExtBa=14.17
19/09/2022,17:27:08,TEMP=9.1,BA=5.64,STAT.F,ExtBa=14.15
19/09/2022,17:44:27,TEMP=9.2,BA=5.64,STAT.D=Abs.,ExtBa=14.14
19/09/2022,17:59:14,TEMP=9.8,BA=5.64,STAT.D=Abs.,ExtBa=14.24
19/09/2022,18:12:06,TEMP=9.8,BA=5.64,STAT.D=Abs.,ExtBa=14.29
19/09/2022,18:27:08,TEMP=9.7,BA=5.64,STAT.F,ExtBa=14.27
19/09/2022,18:42:06,TEMP=10.3,BA=5.64,STAT.D=Abs.,ExtBa=14.25
19/09/2022,18:57:06,TEMP=10.1,BA=5.64,STAT.D=Abs.,ExtBa=14.23
19/09/2022,19:12:06,TEMP=9.9,BA=5.64,STAT.D=Abs.,ExtBa=14.21
19/09/2022,19:27:07,TEMP=10.7,BA=5.64,STAT.F,ExtBa=14.19
19/09/2022,19:42:05,TEMP=9.9,BA=5.64,STAT.D=Abs.,ExtBa=13.85
19/09/2022,19:53:03,TEMP=10.0,BA=5.64,STAT.B=Abs.,ExtBa=14.13
19/09/2022,20:18:54,TEMP=10.4,BA=5.64,STAT.B=Abs.,ExtBa=14.07
19/09/2022,20:31:30,TEMP=10.0,BA=5.64,STAT.A=Abs.,ExtBa=13.67
19/09/2022,20:41:42,TEMP=9.8,BA=5.64,STAT.A=Abs.,ExtBa=13.89
19/09/2022,20:50:10,TEMP=9.6,BA=5.60,STAT.A=Abs.,ExtBa=13.89
19/09/2022,20:57:20,TEMP=9.2,BA=5.60,STAT.A=Abs.,ExtBa=13.83
19/09/2022,21:03:27,TEMP=8.9,BA=5.64,STAT.C=Abs.,ExtBa=13.77
19/09/2022,21:15:03,TEMP=9.1,BA=5.60,STAT.A=Abs.,ExtBa=12.68
19/09/2022,21:18:03,TEMP=9.1,BA=5.60,STAT.A=Abs.,ExtBa=12.70
19/09/2022,21:21:03,TEMP=8.9,BA=5.60,STAT.A=Abs.,ExtBa=12.71
19/09/2022,21:24:05,TEMP=8.7,BA=5.60,STAT.A=Abs.,ExtBa=12.71
19/09/2022,21:27:07,TEMP=8.5,BA=5.60,STAT.B=Abs.,ExtBa=12.70
19/09/2022,21:35:16,TEMP=8.0,BA=5.56,STAT.A=Abs.,ExtBa=12.67
19/09/2022,21:39:21,TEMP=8.0,BA=5.56,STAT.A=Abs.,ExtBa=12.70
19/09/2022,21:42:23,TEMP=8.1,BA=5.56,STAT.A=Abs.,ExtBa=12.68
19/09/2022,21:45:22,TEMP=8.1,BA=5.56,STAT.A=Abs.,ExtBa=12.68
19/09/2022,21:48:20,TEMP=8.1,BA=5.56,STAT.A=Abs.,ExtBa=12.68
19/09/2022,21:51:28,TEMP=8.1,BA=5.52,STAT.A=Abs.,ExtBa=12.66